Location: Campillo
(40.8621°N, 4.2488°W)
Time: 13:07:16
(UTC+00:00)

Cosmos 1500 - Pass Details

Date: 11 May 2021
Orbit: 497 x 519 km, 82.5° (Epoch: 13 June)

Event Time Altitude Azimuth Distance (km) Brightness Sun altitude
Rises 21:24:36 0° 351° (N) 2,606 7.7 -19.2°
Reaches altitude 10° 21:26:44 10° 350° (N) 1,714 6.7 -19.5°
Maximum altitude 21:30:29 80° 263° (W) 512 3.1 -20.0°
Enters shadow 21:31:10 57° 189° (S) 594 3.2 -20.0°
